Location: Munkebjergskolens Observatorium
(55.3864°N, 10.3987°E)
Time: 14:30:10
(UTC+01:00)

CAS-4A - Visible Passes

Search period start: 25 March 2023 00:00
Search period end: 04 April 2023 01:00
Orbit: 510 x 527 km, 43.0° (Epoch: 25 March)

Date Brightness Start Highest point End Pass type
(mag) Time Alt. Az. Time Alt. Az. Time Alt. Az.
01 Apr ? 06:06:16 10° SSW 06:08:16 13° S 06:10:17 10° SE visible
02 Apr ? 05:49:39 10° SSW 05:51:42 14° S 05:53:46 10° SE visible
03 Apr ? 05:33:02 10° SSW 05:35:07 14° S 05:37:14 10° SE visible
